Simultaneous Nadir Overpasses (SNOs) Predictions

Prediction of SNOs between GOES-17 and METOP-B Satellite Orbit:

Table of predicted SNOs for the next 14.0 days since TLE Epoch: 2/13/2025
Index Date Time (GOES-17) GOES-17 Lat,Lon METOP-B Lat,Lon Distance(km) Time Diff (sec)
1 02/14/2025 04:03:05 0.00,-104.67 0.39,-103.06 184.70 80
2 02/15/2025 16:22:03 -0.01,-104.68 0.65,-107.66 339.19 80
3 02/16/2025 16:04:07 -0.01,-104.69 -0.47,-102.69 227.74 80
4 02/18/2025 04:23:13 0.01,-104.69 -0.59,-107.32 300.10 80
5 02/19/2025 03:59:57 0.01,-104.69 0.54,-102.36 266.19 80
6 02/20/2025 16:18:54 -0.00,-104.69 0.49,-106.96 258.42 80
7 02/21/2025 16:00:58 -0.00,-104.69 -0.58,-101.98 308.28 80
8 02/23/2025 04:20:04 0.00,-104.70 -0.40,-106.63 219.44 80
9 02/24/2025 03:56:48 0.01,-104.69 0.68,-101.65 346.56 80
10 02/25/2025 16:15:45 -0.01,-104.68 0.33,-106.25 178.96 80
11 02/26/2025 15:57:49 -0.01,-104.68 -0.75,-101.28 387.65 80
